Theta_e
353 359 356 352 357 359 357 358 357 354 352 353 354 355 357 359 360 360 360 361 363 361 360 360 360 359 360 358 358 358 357 356 356 355 354 353 352 352 351 350 350 350 349 349 350 350 348 346 344 342 342 342 341 340 339 337 336 335 334 334 332 330 334
353 356 355 350 354 357 357 359 358 356 352 352 352 354 354 356 357 358 361 361 361 360 360 360 360 359 358 357 356 357 356 356 356 354 352 352 352 352 350 349 350 349 349 349 349 349 349 346 345 343 342 341 340 340 339 336 336 335 334 334 333 329 332
349 350 349 348 351 355 357 359 358 357 355 351 351 353 354 355 357 358 358 359 359 359 359 359 359 357 356 355 355 355 354 354 354 353 353 353 351 350 349 348 349 349 348 349 348 347 348 347 345 344 343 341 339 338 339 337 336 336 335 336 333 327 329
347 347 348 348 351 355 358 359 357 356 355 350 349 352 354 355 356 356 355 356 357 358 357 358 357 356 355 355 353 353 353 354 354 353 353 352 350 350 350 349 348 348 349 349 348 348 347 346 346 344 343 341 338 338 339 337 336 336 336 336 333 327 327
346 349 351 352 351 352 355 356 354 354 353 351 350 352 353 353 353 354 356 356 357 357 356 356 356 354 353 353 353 352 352 354 354 353 352 351 349 349 350 349 347 348 349 349 349 349 348 346 345 343 341 340 339 339 338 335 335 336 335 335 332 328 326
347 349 351 350 348 347 348 350 351 351 351 350 351 352 352 352 352 353 356 357 358 357 355 355 355 354 352 352 352 351 352 353 352 352 351 350 349 348 347 348 348 347 348 349 349 348 348 347 345 343 341 339 338 338 337 336 336 336 335 333 330 328 327
346 348 348 346 346 346 344 344 348 348 349 349 351 351 350 350 352 352 353 355 355 355 354 354 353 354 353 353 353 352 351 351 350 352 352 349 349 347 346 346 346 346 347 348 348 347 347 346 345 343 341 339 338 338 336 336 336 335 332 330 328 329 329
346 346 344 344 345 343 343 346 348 348 350 350 349 351 350 351 351 350 352 354 354 353 354 353 354 355 355 354 354 354 353 352 352 351 350 349 346 345 345 346 347 346 347 347 348 347 346 346 344 341 341 339 337 336 336 336 335 332 329 329 329 329 329
347 347 345 344 344 343 347 349 347 348 350 350 349 350 351 351 351 353 354 354 354 354 353 354 355 355 355 355 355 355 353 352 351 350 348 348 347 345 345 346 346 345 346 346 346 346 346 345 342 340 341 339 336 336 336 336 333 329 327 329 330 328 329
347 348 347 347 346 348 350 349 349 349 349 351 351 351 352 352 353 354 353 353 354 353 353 355 356 356 356 355 354 352 351 350 349 350 349 348 346 346 346 347 347 346 345 345 345 345 346 344 342 341 339 338 337 336 336 335 332 330 331 331 330 329 329
346 349 348 346 345 349 350 349 352 354 352 352 352 351 354 355 355 355 354 353 354 352 354 355 354 355 355 354 351 348 349 350 349 349 349 348 348 347 348 348 348 347 347 346 346 346 345 344 342 339 337 336 337 336 335 334 332 331 331 331 329 328 328
349 352 350 349 349 352 357 359 357 355 353 353 350 350 355 356 355 357 357 357 356 355 356 355 353 355 354 351 349 348 350 351 350 349 348 348 349 349 348 350 350 349 349 347 346 346 345 343 340 338 337 335 335 335 333 331 329 326 325 325 323 323 326
353 354 352 355 360 363 368 366 361 357 354 353 352 353 356 356 357 360 361 360 358 358 358 356 355 357 353 349 350 350 350 350 350 349 348 349 349 350 350 350 349 349 349 348 346 346 344 342 339 338 337 334 333 333 331 327 325 322 320 320 319 319 325
353 352 354 363 369 373 374 367 362 359 356 356 356 356 357 355 356 361 362 361 360 359 359 359 356 354 352 351 351 351 351 350 349 350 349 349 350 349 348 347 347 348 349 348 345 344 343 341 338 337 336 333 332 332 329 326 325 322 318 315 314 318 326
350 349 352 357 364 370 371 365 362 360 358 359 359 358 358 357 357 361 362 363 363 361 361 360 354 350 351 351 350 351 350 350 351 351 350 349 349 348 347 346 345 348 349 348 345 343 341 339 338 337 335 332 331 330 328 326 324 321 315 311 312 320 329
347 346 347 346 351 359 362 360 359 358 358 359 359 358 360 359 360 360 359 361 362 362 361 360 353 350 352 350 349 350 352 350 351 351 351 351 350 349 349 348 347 348 348 347 345 344 341 339 338 336 334 332 330 329 328 326 323 319 312 312 317 323 329
346 346 346 346 351 357 358 357 355 356 359 359 358 359 360 361 361 359 359 360 361 361 360 357 352 350 351 349 349 351 351 350 350 350 350 351 350 350 350 349 348 349 349 348 345 343 342 340 338 335 333 331 330 330 328 324 321 318 313 314 320 324 327
348 348 348 351 354 359 358 357 356 356 357 359 360 360 360 361 361 360 360 361 359 359 358 355 352 349 349 350 351 350 350 350 350 347 347 350 350 350 350 349 349 349 349 347 345 344 342 340 337 335 332 329 330 332 328 321 317 315 313 317 322 324 325
346 348 354 356 356 359 359 359 358 359 358 360 362 362 361 362 361 361 361 360 359 359 358 356 355 352 351 352 350 349 348 350 349 346 346 348 348 348 348 347 347 348 348 348 345 344 343 339 336 333 330 329 332 333 328 321 319 316 313 317 323 325 325
352 352 356 358 358 357 359 360 361 360 362 362 363 363 362 361 360 360 359 359 358 359 358 357 357 356 354 353 352 349 346 346 348 347 347 348 347 348 348 346 347 348 348 348 346 344 342 339 336 333 329 326 330 332 328 323 324 322 316 315 321 325 326
361 359 355 356 360 359 360 361 362 363 363 363 362 361 360 360 359 358 358 358 359 359 358 357 357 357 356 355 354 353 349 347 347 347 347 348 348 349 348 347 348 347 347 346 345 344 342 338 335 332 329 327 330 333 329 325 326 326 320 314 316 323 327
360 358 354 353 357 360 361 360 362 365 364 362 361 360 360 359 359 359 359 359 359 359 359 357 357 359 358 356 356 355 355 353 350 350 350 350 350 350 349 349 349 347 346 344 344 345 341 336 334 331 329 329 331 331 329 327 327 327 323 317 313 320 327
353 352 353 350 352 358 361 360 362 364 363 361 361 360 359 359 360 359 359 358 358 359 359 358 358 358 358 358 357 356 356 355 354 354 353 352 350 350 350 349 348 348 346 344 345 343 338 335 334 330 329 329 328 329 330 330 329 326 324 319 312 317 326
349 349 348 347 350 355 356 357 361 362 361 361 360 358 359 359 358 358 358 357 358 359 360 359 359 359 358 358 356 355 354 354 355 355 353 352 351 350 349 348 346 348 346 345 344 340 336 335 332 329 330 329 326 327 330 331 330 326 325 321 313 314 323
345 343 343 345 348 352 356 359 361 360 361 360 358 358 358 357 358 358 357 357 357 358 359 360 360 359 358 357 355 354 353 353 355 356 353 353 352 351 349 347 347 347 346 344 342 337 335 335 331 329 332 329 326 327 331 332 331 328 328 324 315 313 321
344 340 343 345 347 351 357 359 358 358 359 357 357 358 357 356 357 357 357 357 357 357 359 360 359 358 357 356 355 354 353 353 354 354 354 354 354 352 350 349 347 346 344 342 340 336 335 334 331 330 332 331 329 331 333 333 331 330 330 324 315 314 319
342 343 345 346 348 351 353 354 355 356 357 356 356 356 355 356 357 356 357 358 357 358 358 358 358 357 355 355 354 353 353 352 352 353 353 352 352 352 350 348 346 343 341 340 339 336 334 333 330 330 333 333 332 332 334 334 332 332 330 322 315 316 317
343 345 346 349 351 351 351 354 354 354 356 356 356 354 354 357 357 357 357 358 357 357 357 356 357 356 354 355 354 353 353 352 351 353 352 350 351 351 348 345 342 340 339 339 337 333 333 331 330 331 334 334 334 332 333 335 333 333 331 321 316 320 320
343 346 348 349 350 350 352 352 351 352 353 353 353 353 353 356 358 358 358 357 356 355 355 355 356 354 354 354 353 352 351 351 351 352 352 352 352 350 345 341 340 339 337 336 334 333 333 332 332 335 336 335 334 333 334 335 334 334 330 323 321 324 322
345 347 347 348 347 349 351 350 349 351 351 350 350 352 353 355 358 358 358 357 355 354 354 355 354 354 354 353 352 351 351 350 351 351 352 353 352 347 342 340 339 339 337 336 336 336 336 335 335 336 336 335 335 334 334 336 335 333 331 326 325 325 323
347 348 348 349 350 351 350 349 348 349 350 349 349 350 352 354 355 357 358 358 356 354 354 354 353 354 354 353 352 352 350 350 351 351 351 352 350 346 342 340 340 339 338 338 338 338 337 337 337 336 336 336 335 335 336 336 335 333 331 329 328 327 325
349 349 350 351 351 350 349 347 348 348 349 349 348 349 351 352 353 356 356 355 355 354 354 354 354 353 353 353 352 351 351 351 350 350 351 351 348 344 341 340 339 338 338 338 338 338 339 338 337 336 336 336 335 335 337 336 335 334 332 329 327 328 328
352 350 350 351 349 350 349 348 349 349 350 349 348 348 350 350 352 354 354 354 354 354 354 355 354 353 353 353 353 352 352 351 350 350 350 350 347 342 339 339 338 337 339 339 337 337 338 337 336 334 332 333 336 337 336 336 335 334 331 326 323 324 328
352 350 350 350 350 351 351 349 349 350 350 350 349 349 349 351 351 352 354 354 354 354 354 354 353 353 352 352 352 353 352 352 350 350 349 348 347 343 340 339 339 339 339 336 334 334 333 332 331 328 324 327 334 336 336 335 334 332 329 323 318 318 322
351 348 348 349 351 351 351 350 349 349 349 349 349 348 349 351 352 353 354 355 355 354 354 353 353 354 353 353 353 352 352 352 351 350 349 348 347 346 343 341 339 339 339 335 333 333 331 328 326 323 319 323 328 330 331 334 332 328 323 318 313 312 315
350 348 347 349 350 350 350 350 348 348 348 347 348 348 349 351 353 354 355 355 355 355 354 353 353 353 352 352 353 352 352 352 350 350 350 349 348 347 346 342 339 338 338 336 334 334 332 329 325 320 317 322 326 324 324 330 328 322 317 316 313 312 312
350 349 348 349 350 349 348 348 346 346 347 348 348 348 349 351 352 352 353 354 354 355 354 354 353 352 350 350 352 351 351 350 349 349 350 349 349 348 347 344 341 337 335 334 334 335 335 332 328 321 317 320 324 321 319 322 322 317 315 316 316 315 314
350 350 349 348 349 348 347 347 347 346 347 348 348 348 350 351 352 351 352 353 353 354 354 354 353 352 351 350 350 351 350 349 349 350 349 348 349 348 346 344 342 339 336 334 334 336 337 335 331 324 317 316 319 320 316 315 316 316 316 317 317 317 316
Wind_Speed
9 4 3 4 6 5 3 2 5 5 2 2 1 2 2 3 4 5 5 6 7 7 6 7 6 5 6 6 6 5 6 5 4 4 4 4 4 3 3 4 4 7 6 3 5 6 5 5 5 5 6 7 7 6 5 7 10 10 12 17 15 13 13
7 5 3 2 5 6 5 4 2 3 2 0 1 1 2 3 4 5 5 5 5 5 6 6 6 5 5 5 5 4 5 5 4 3 4 5 4 2 4 4 4 6 7 6 6 6 5 5 7 6 4 6 8 6 4 5 9 10 11 14 14 14 13
7 7 6 4 4 5 4 4 4 2 3 1 2 2 2 3 4 5 6 6 4 4 4 5 5 6 5 5 5 4 4 4 3 2 3 4 4 3 4 5 5 5 6 6 6 6 6 6 8 8 6 6 7 6 6 8 11 11 12 12 12 14 13
6 7 7 5 4 4 3 3 4 3 3 1 2 3 2 3 3 4 4 6 5 5 4 3 4 5 4 4 4 4 4 3 2 2 3 3 3 3 3 4 5 5 6 6 6 6 6 6 7 6 5 3 3 4 8 11 12 12 12 12 13 15 12
7 7 6 5 4 3 3 3 4 3 2 1 2 1 2 4 4 4 3 3 4 4 4 2 2 4 4 2 2 3 3 2 1 2 4 3 3 3 2 2 3 5 6 6 7 8 7 6 6 5 4 2 4 8 11 12 12 13 13 12 13 14 11
6 5 4 4 4 3 2 1 2 2 1 1 2 1 3 3 3 4 3 3 2 3 4 2 1 3 3 2 2 2 3 2 2 2 2 1 2 3 3 2 5 7 8 7 8 8 7 6 6 6 6 6 8 12 14 13 12 12 12 13 14 14 12
5 5 4 3 3 3 3 1 1 2 2 2 1 1 3 1 3 3 2 4 4 2 3 3 2 2 3 2 1 2 3 2 1 1 1 4 6 4 3 6 6 9 9 8 8 7 6 6 5 7 8 8 10 12 14 13 11 12 13 13 13 13 13
5 3 3 2 1 2 3 3 3 3 2 2 2 3 3 0 4 7 6 5 5 3 3 3 2 2 3 2 1 2 4 4 4 5 7 10 11 9 7 11 12 10 9 7 8 8 7 7 7 8 8 8 10 11 12 11 10 12 13 12 12 13 13
5 3 2 2 3 5 5 6 6 4 3 2 2 4 4 2 2 4 4 4 5 4 4 4 3 2 2 1 1 1 4 7 9 11 13 12 10 9 9 10 13 13 9 5 8 10 9 9 9 8 7 8 10 10 11 12 12 13 12 12 13 13 13
5 3 3 3 5 6 7 6 6 4 4 2 1 3 4 3 1 1 2 2 5 5 4 5 3 2 2 2 2 8 11 11 9 8 9 9 8 7 5 4 8 11 9 6 7 9 8 8 8 6 6 8 10 11 11 13 14 13 12 12 12 12 12
5 4 3 3 3 4 4 4 4 4 5 3 4 5 4 2 3 3 2 1 4 6 5 4 2 2 2 3 10 12 9 5 2 2 4 7 9 8 5 6 10 11 10 7 7 8 7 6 6 7 9 10 10 11 11 12 13 12 12 12 12 12 11
6 4 2 3 4 5 4 4 4 4 5 6 7 4 6 4 5 4 0 3 4 5 5 3 1 1 5 10 11 6 2 2 2 2 3 4 7 7 6 7 9 10 9 7 7 6 5 5 6 8 10 10 10 10 11 12 12 11 12 12 12 11 11
6 4 1 2 5 4 4 5 6 5 5 7 6 0 5 5 4 2 2 4 5 4 3 2 2 5 10 10 6 2 2 3 2 2 3 4 6 6 6 6 6 8 8 7 7 4 2 4 5 7 11 10 9 9 10 11 12 12 13 13 12 11 10
5 4 2 4 3 2 3 5 7 6 4 6 4 1 3 4 3 3 3 2 3 3 3 3 4 7 8 4 3 4 4 2 1 3 4 6 8 7 5 5 5 7 8 8 8 6 5 7 7 9 12 10 8 9 11 12 13 13 14 14 12 10 9
4 3 4 4 2 2 3 4 7 5 3 4 3 3 3 3 2 3 3 3 2 2 1 3 8 9 6 2 2 4 4 2 2 3 4 6 6 5 4 3 5 7 7 8 7 7 8 8 7 8 10 9 7 9 11 12 13 13 14 14 12 10 9
3 4 4 3 1 1 4 6 6 3 2 3 3 3 3 3 2 2 2 3 3 2 1 5 10 8 4 3 2 3 4 3 1 2 4 4 3 4 4 4 6 7 7 8 7 7 6 5 6 8 9 8 6 8 10 11 12 13 14 13 11 9 8
4 5 3 3 2 5 5 4 3 2 2 1 1 1 2 2 2 2 1 0 2 2 3 6 8 4 1 2 3 3 4 3 1 3 5 4 3 5 5 6 7 7 7 8 7 6 5 5 7 9 9 6 5 7 10 11 12 14 15 12 9 8 9
5 3 1 1 2 4 4 2 1 1 2 3 2 2 2 2 1 1 3 4 3 2 4 7 7 6 3 3 5 7 5 2 1 3 6 7 7 7 5 6 7 6 7 8 6 4 4 5 7 8 7 5 5 8 9 11 14 16 15 11 7 8 10
4 2 3 2 1 3 4 3 2 2 3 4 3 3 3 3 3 3 4 5 4 5 6 5 6 8 6 5 6 8 6 2 1 1 5 7 8 8 7 6 5 5 7 6 5 4 3 5 7 7 5 4 5 8 8 9 14 17 15 10 6 7 9
4 6 5 1 2 4 4 4 4 4 4 5 4 4 4 4 4 4 4 4 4 6 6 5 6 7 7 8 8 7 8 6 1 2 5 7 7 8 8 6 5 6 8 7 5 4 4 4 8 6 4 3 3 6 6 6 11 15 17 12 6 6 9
8 8 3 3 4 5 5 5 6 5 5 5 4 4 4 4 4 4 5 4 4 6 7 5 5 7 6 6 7 6 8 9 6 6 7 7 7 8 8 7 6 7 9 8 7 5 4 5 10 7 5 3 1 4 6 4 8 12 16 16 8 6 11
8 4 6 3 2 4 6 6 6 6 5 5 5 4 4 4 4 5 5 4 4 5 7 5 4 5 5 5 6 5 6 8 8 8 9 8 7 7 8 8 7 7 8 8 6 5 3 7 8 5 4 2 1 2 6 5 8 10 15 17 11 7 12
4 11 9 7 5 6 8 7 7 6 5 4 5 5 6 5 5 5 4 4 4 4 5 5 4 4 5 5 5 5 5 6 6 7 8 8 8 8 7 8 8 7 7 7 5 2 4 9 8 5 5 2 3 4 5 4 8 10 13 16 13 9 12
14 17 8 8 6 6 8 7 7 7 5 5 5 5 6 6 5 5 5 5 5 5 4 4 4 4 5 5 5 6 6 5 6 7 6 7 8 8 7 7 8 8 6 6 4 5 7 8 6 5 4 2 3 4 5 4 8 10 11 15 13 10 10
14 10 7 7 5 6 8 8 8 7 6 6 6 5 6 6 6 6 5 6 7 6 4 3 4 4 5 5 6 6 6 6 6 6 6 6 8 8 7 8 8 8 6 5 5 6 5 5 5 4 3 3 2 2 4 4 6 9 10 12 12 10 9
8 5 9 6 5 6 8 8 7 7 6 6 6 6 6 7 7 7 6 7 9 8 5 4 5 6 5 5 6 6 7 7 6 6 6 7 7 7 7 8 8 7 5 4 5 6 4 4 6 4 4 4 1 2 2 2 4 6 7 10 10 8 9
2 9 7 4 3 4 7 7 6 8 8 6 6 6 6 7 8 8 7 8 9 8 7 6 6 6 6 7 7 7 7 7 6 7 7 7 7 7 7 7 7 6 5 4 6 7 4 3 4 3 3 2 1 2 0 1 2 3 5 8 8 7 7
6 10 7 5 5 5 7 8 8 8 8 7 7 7 7 8 9 8 8 9 9 8 8 7 6 6 7 8 8 7 6 6 7 7 6 6 7 8 7 7 7 6 5 5 6 5 3 2 2 1 1 1 2 3 1 3 2 2 4 6 6 5 6
8 9 8 7 6 6 7 8 8 9 8 8 8 8 8 9 10 9 9 8 8 8 7 7 7 6 7 8 7 6 6 5 6 5 5 6 8 8 8 8 7 6 6 6 5 4 3 2 1 1 2 3 3 3 2 4 3 3 4 5 6 4 3
9 10 10 8 7 8 8 8 8 8 8 9 10 9 10 11 10 9 8 8 7 7 6 6 6 6 7 7 7 6 5 4 5 5 5 6 7 8 8 7 7 7 6 6 5 5 4 4 3 4 5 5 5 3 3 5 3 4 3 4 6 4 2
10 11 9 8 8 9 9 8 8 8 9 10 12 12 13 12 10 9 8 7 7 6 5 5 5 5 6 6 5 5 4 4 4 4 4 5 7 7 7 7 7 6 5 6 6 6 6 6 8 9 9 9 8 5 6 6 4 4 4 4 6 6 4
11 10 8 8 9 8 8 9 9 10 11 11 12 13 14 12 11 9 8 6 5 5 5 5 4 4 5 5 5 4 4 3 3 4 5 6 7 7 7 7 7 7 7 8 8 10 10 10 11 11 11 13 11 7 7 8 4 4 4 1 4 6 6
10 9 9 10 9 8 9 10 10 11 11 12 12 13 12 12 11 9 7 6 6 5 5 4 3 4 4 4 4 3 3 3 3 4 5 6 7 7 8 9 9 9 9 7 7 8 11 10 8 7 6 5 9 10 8 7 5 5 5 3 1 3 3
10 10 10 10 10 10 11 11 11 12 12 12 12 12 12 11 10 9 7 7 6 5 4 4 3 2 2 3 3 3 2 2 3 3 5 6 5 3 2 4 3 5 6 1 7 5 1 2 5 7 10 8 5 8 9 8 7 8 7 4 1 1 1
11 12 11 11 11 11 11 12 12 12 12 11 11 11 11 11 10 9 8 7 7 6 5 4 3 2 1 1 2 2 2 2 3 3 4 6 5 4 4 2 4 7 6 3 7 7 6 7 7 7 9 9 7 3 2 7 10 10 6 2 1 2 1
12 12 11 12 12 12 12 12 12 12 12 12 11 11 11 10 9 8 8 8 7 6 5 4 3 2 0 1 1 1 2 2 3 3 4 4 4 4 5 5 2 2 3 2 5 6 6 6 6 6 6 4 4 7 4 5 10 8 4 1 2 3 3
13 12 12 12 11 12 12 11 12 13 13 12 11 10 10 10 8 8 8 7 7 6 5 5 4 3 2 1 1 1 2 4 2 2 4 3 2 4 6 7 6 5 4 4 4 5 5 5 4 4 4 2 2 3 2 2 6 4 2 2 3 3 3
14 13 13 12 11 12 11 11 11 12 12 11 11 9 10 9 8 8 8 7 7 6 6 5 4 4 4 3 3 2 2 5 3 1 2 3 3 4 5 5 6 7 7 7 7 6 6 5 4 3 2 3 5 4 2 2 4 4 3 2 2 2 2
Wind_Direction
84 64 56 100 116 127 126 174 271 294 345 345 17 73 98 104 108 110 109 114 122 126 125 129 139 148 146 138 137 148 153 149 146 139 124 121 135 131 123 137 125 115 122 113 98 94 84 83 75 76 101 100 79 49 37 46 41 34 19 12 17 20 11
123 137 134 117 119 127 137 155 228 301 312 190 97 84 108 117 117 113 112 114 123 130 133 139 149 153 141 133 139 146 139 133 131 127 114 106 104 83 92 107 92 87 94 84 82 92 97 83 61 52 71 81 69 44 16 42 50 44 26 17 14 9 8
140 137 129 115 106 112 131 153 160 238 279 259 128 115 101 114 122 125 128 128 134 145 143 144 148 145 140 138 136 131 125 125 124 114 101 96 93 81 67 71 81 94 95 83 81 94 97 87 71 52 41 55 62 51 30 36 47 45 31 26 13 358 10
121 112 107 105 97 100 126 161 155 191 250 270 112 132 150 148 133 130 136 139 150 160 151 156 157 138 136 146 130 117 118 115 99 71 72 71 70 64 46 55 74 80 82 72 65 83 90 83 84 76 63 57 50 56 50 39 40 42 34 30 15 357 10
122 114 117 128 127 125 161 177 165 188 223 108 88 116 184 179 154 137 136 137 139 142 141 158 167 137 136 163 149 123 126 124 65 51 66 69 43 27 38 120 100 73 85 84 63 74 83 68 65 64 50 39 47 60 59 43 36 37 31 28 18 356 3
134 134 145 144 133 139 160 172 172 179 171 121 121 154 228 220 153 133 136 144 142 133 134 126 169 151 138 167 189 142 129 147 146 75 47 44 31 10 2 48 83 85 84 80 69 75 80 68 61 54 37 30 44 54 53 42 32 31 26 27 18 355 3
139 140 142 146 154 165 154 94 69 70 31 8 67 195 232 210 109 133 163 168 172 164 146 149 187 158 120 128 154 84 56 38 90 100 32 23 31 36 19 10 45 88 85 76 78 77 80 89 81 59 44 35 40 48 49 44 34 30 26 24 17 2 10
142 143 133 145 163 141 119 66 38 37 23 356 352 318 292 75 143 173 190 181 171 172 149 139 174 153 110 105 69 61 47 33 28 25 31 28 20 33 43 9 14 56 79 89 91 74 74 88 70 53 53 52 49 48 45 41 37 33 27 24 20 13 16
147 139 68 27 23 40 53 41 23 9 358 6 347 320 305 295 190 168 168 158 157 167 146 129 152 147 106 138 232 46 48 45 34 24 31 32 23 38 45 15 20 46 50 54 71 65 66 72 62 58 72 74 64 54 47 45 43 37 29 26 24 18 18
135 118 55 18 12 31 38 21 2 339 330 335 263 275 277 281 300 145 176 169 162 167 148 135 148 137 148 204 37 38 36 36 35 31 34 38 52 80 85 47 62 69 55 40 52 56 62 68 63 60 65 70 65 55 50 48 45 39 30 26 23 17 17
111 89 51 7 4 29 24 352 326 316 323 300 249 238 228 246 260 230 228 177 153 158 150 146 164 163 152 66 49 43 37 31 37 75 54 46 67 97 107 73 74 77 71 63 58 52 53 59 60 57 55 57 58 54 51 50 49 42 30 23 19 15 13
102 88 43 6 27 31 9 339 311 302 295 277 268 234 178 198 251 245 139 73 112 145 151 147 160 80 56 49 44 35 32 36 39 79 79 68 79 88 88 83 82 79 74 76 78 68 60 65 67 70 64 52 49 57 59 57 51 39 29 21 14 9 9
103 111 136 54 43 26 6 346 317 291 273 278 298 28 163 202 232 214 118 98 109 130 141 105 51 51 52 44 17 349 74 59 37 68 85 95 98 92 92 103 104 97 94 92 85 75 91 102 91 89 82 60 49 69 75 63 46 33 26 16 6 6 10
121 139 117 72 45 9 16 350 312 291 282 290 303 234 206 220 201 176 176 157 135 135 135 104 70 56 53 38 344 20 71 111 90 80 98 111 114 117 122 124 115 110 107 95 81 69 73 75 65 70 75 61 53 76 80 61 42 29 19 9 4 7 11
144 124 67 48 23 5 357 305 280 277 282 278 268 231 221 225 203 187 190 195 167 139 152 102 76 59 49 42 357 18 40 71 66 83 133 146 139 136 143 138 122 117 110 100 94 86 75 70 73 76 70 57 55 71 71 57 39 26 14 8 8 7 7
151 85 42 346 290 215 253 248 246 257 263 251 241 208 198 207 216 215 221 209 162 133 145 84 72 61 57 70 50 8 20 22 29 125 150 171 165 138 143 148 135 127 119 108 102 100 93 82 88 88 76 65 62 68 68 54 33 22 15 12 14 10 5
93 62 16 331 135 169 213 225 214 209 197 211 223 166 173 189 202 217 270 144 132 124 107 87 81 89 117 66 72 65 32 1 263 157 167 184 159 137 152 160 150 140 131 123 118 118 114 85 71 75 77 77 80 84 73 50 29 22 17 17 20 6 0
75 53 18 32 97 150 178 171 172 174 128 123 126 124 139 155 162 113 70 76 91 104 97 95 103 118 111 49 57 73 69 9 281 173 180 174 151 149 160 161 159 152 136 135 139 131 110 89 85 85 82 79 96 105 85 48 33 26 19 20 21 3 360
68 61 91 64 87 156 156 144 122 79 86 102 110 106 111 116 98 79 80 87 95 107 106 106 112 114 115 112 95 92 107 139 320 145 173 174 160 156 154 153 166 161 145 145 149 143 128 112 106 97 80 70 97 109 90 47 36 33 26 23 15 4 360
27 27 56 90 198 164 142 132 126 113 97 96 102 106 107 106 98 89 83 78 76 86 92 98 108 112 118 123 119 114 118 122 82 108 155 173 170 159 155 158 163 162 162 159 144 158 185 135 113 102 83 73 98 115 100 44 36 35 29 19 358 350 350
34 7 326 212 183 144 130 131 128 122 116 115 119 117 110 101 93 87 80 71 67 81 88 90 101 106 106 107 112 114 113 120 139 152 154 163 162 155 154 155 153 158 167 160 144 175 207 116 103 99 95 98 145 147 133 72 37 34 28 16 352 334 347
55 307 261 203 158 142 134 134 127 123 130 133 123 109 101 90 79 80 83 78 70 82 91 90 85 91 88 85 95 100 102 115 132 140 141 145 145 142 139 141 145 149 155 156 162 205 190 109 102 102 105 109 345 118 136 98 39 33 28 16 354 343 355
141 231 207 150 166 158 133 129 123 122 128 124 115 105 98 90 83 85 84 78 77 80 91 95 82 78 76 71 74 78 84 95 103 116 128 134 134 133 131 136 141 137 142 157 174 187 113 99 98 97 96 84 18 67 125 103 42 34 27 13 360 359 1
201 220 180 134 157 141 121 125 121 121 125 110 101 98 97 93 83 79 74 73 83 85 84 88 85 78 75 68 65 71 79 85 91 101 113 118 124 131 128 126 130 128 135 154 145 102 96 97 96 97 94 62 23 62 120 106 45 34 22 8 1 4 2
216 199 121 119 155 128 121 131 123 122 121 103 93 89 90 88 75 70 68 72 83 84 72 74 90 89 80 73 74 80 85 88 95 105 111 113 119 124 116 109 116 124 137 155 130 103 107 116 117 122 127 110 32 41 123 111 38 23 10 2 2 2 356
230 129 110 139 156 128 135 144 129 116 107 94 89 82 80 82 76 70 71 75 84 91 87 85 96 95 88 83 82 87 92 95 101 108 115 116 112 111 110 108 112 123 134 139 123 118 127 130 127 142 151 133 51 343 104 92 16 10 357 358 9 5 355
152 84 93 103 77 96 124 124 106 102 98 84 76 71 68 74 74 73 75 74 77 85 88 91 95 94 94 93 88 87 93 99 105 110 118 126 120 110 109 108 111 118 116 102 104 112 115 101 104 122 133 121 332 322 295 247 322 356 352 359 15 16 9
113 96 92 75 59 69 95 97 90 87 85 75 65 57 58 67 72 76 78 74 72 75 78 81 86 92 98 97 91 88 92 97 104 109 120 132 125 115 110 108 108 112 107 98 100 108 118 111 102 125 169 213 278 301 253 218 244 316 340 4 14 13 24
117 108 104 90 73 66 75 85 86 82 81 78 66 53 54 65 73 78 78 75 75 77 77 77 81 91 99 99 94 91 92 98 103 106 117 125 120 117 115 113 118 122 119 120 124 128 135 133 132 264 261 254 263 279 237 200 218 288 324 8 5 339 21
94 95 98 90 80 76 74 74 77 81 85 85 75 61 57 64 72 80 79 75 75 76 80 82 86 97 103 101 99 97 97 107 110 110 123 128 123 122 124 128 138 141 139 145 158 169 174 181 207 232 246 249 250 253 217 199 217 258 279 343 345 311 291
90 92 98 99 96 92 87 81 74 65 64 75 80 72 62 59 65 73 75 76 75 76 82 87 93 106 111 110 110 107 109 121 126 131 137 135 131 134 143 153 157 158 163 173 186 199 205 212 218 221 225 225 225 220 195 188 210 251 253 305 324 296 271
98 105 111 108 100 93 91 90 82 65 53 57 68 70 64 59 59 64 69 71 72 74 81 88 99 109 114 119 121 121 130 140 148 153 151 152 158 161 168 176 175 180 192 205 217 216 213 221 229 231 229 217 205 194 177 171 190 239 228 274 320 294 279
111 111 105 96 88 82 80 78 74 70 61 51 51 57 59 56 55 58 60 59 60 69 79 83 93 108 120 131 134 141 155 162 172 171 165 175 185 180 184 199 205 196 196 228 261 234 211 219 237 255 267 217 173 162 162 166 185 199 178 153 345 320 305
118 109 102 95 88 80 75 73 71 70 66 59 55 56 55 53 52 51 54 54 52 57 67 65 68 93 122 137 143 161 174 173 192 193 180 191 212 231 209 207 192 150 161 256 345 1 44 5 11 9 4 18 95 151 174 182 179 171 166 172 185 86 36
126 116 108 96 88 81 78 77 76 72 68 64 62 60 56 52 46 44 49 51 46 43 46 50 56 67 103 148 169 190 200 197 207 212 199 197 218 277 319 352 71 94 114 63 17 21 17 14 22 16 5 11 15 352 205 167 161 164 172 183 117 84 66
120 114 106 97 92 86 81 80 79 76 72 67 64 63 60 54 45 43 45 43 41 38 33 31 29 20 13 226 233 221 222 235 218 212 224 220 217 250 269 264 244 130 127 43 14 8 355 356 360 353 358 15 356 344 359 134 154 164 178 154 77 54 42
114 110 103 98 93 86 82 81 79 77 74 70 65 64 63 57 48 47 46 40 37 34 28 27 14 355 8 30 348 317 265 273 263 194 215 233 241 257 252 239 237 250 271 299 319 320 317 316 315 328 341 310 272 323 1 153 167 168 164 124 87 48 36
112 107 102 98 92 86 81 76 73 75 77 77 71 65 66 65 55 49 46 41 38 34 29 33 22 1 7 12 2 3 300 288 305 328 260 251 248 263 254 223 216 233 250 261 271 274 276 277 273 277 289 264 257 266 274 217 191 180 171 127 90 50 24